TAM8070 SBGR-EDDF

Flight info

Callsign TAM8070
Flight time N/A
Altitude 31000
Route AMVUL6A NUXEL UZ23 ILPIR UZ72 EDNES UN866 NIGTU/N0500F330 UN866 DEKON/N0494F340 UN866 AMDOL/N0488F330 UN866 IRANI/N0485F350 UN866 TENPA N866 GOMER/N0475F340 N866 BRICK/N0476F360 N866 KONBA UN866 BEXAL/N0416F240 UN872 ESP/N0471F360 DCT MAGUM/N0412F240 UN745 RIVRO/N0473F360 DCT ZMR N873 DELOG DCT PEXOD DCT DIDIG DCT TIRAV DCT ERJAZ DCT PIWIZ DCT TSU UM163 LEQOS DCT SUIPE DCT LUTAX/N0471F370 DCT DIK DCT IMCOM IMCOM1B
Aircraft B77W/H-SDE2E3FGHIJ1J4J5M1RWXYZ/EB1D1

Departure

Time 2026-05-07 04:29
Airport São Paulo/Guarulhos–Governor André Franco Montoro International Airport (SBGR)

Arrival

Time N/A
Airport Frankfurt Main Airport (EDDF)
Time Latitude Longitude Altitude Speed Heading
2026-05-07 03:26 -23.42667 -46.47282 2466 ft 0 kts 255°
2026-05-07 04:17 -23.42664 -46.47269 2468 ft 4 kts 255°
2026-05-07 04:18 -23.42657 -46.47240 2466 ft 4 kts 255°
2026-05-07 04:18 -23.42650 -46.47216 2466 ft 4 kts 232°
2026-05-07 04:18 -23.42633 -46.47208 2469 ft 4 kts 160°
2026-05-07 04:18 -23.42608 -46.47219 2467 ft 4 kts 159°
2026-05-07 04:19 -23.42601 -46.47222 2466 ft 0 kts 163°
2026-05-07 04:22 -23.42609 -46.47220 2470 ft 6 kts 163°
2026-05-07 04:22 -23.42682 -46.47193 2468 ft 10 kts 154°
2026-05-07 04:23 -23.42744 -46.47156 2468 ft 11 kts 159°
2026-05-07 04:23 -23.42839 -46.47123 2467 ft 14 kts 164°
2026-05-07 04:23 -23.42906 -46.47117 2469 ft 8 kts 206°
2026-05-07 04:23 -23.42936 -46.47165 2465 ft 8 kts 247°
2026-05-07 04:24 -23.42956 -46.47230 2468 ft 10 kts 252°
2026-05-07 04:24 -23.42976 -46.47304 2465 ft 10 kts 253°
2026-05-07 04:24 -23.42996 -46.47377 2471 ft 10 kts 253°
2026-05-07 04:24 -23.43016 -46.47451 2472 ft 10 kts 253°
2026-05-07 04:25 -23.43037 -46.47527 2468 ft 11 kts 253°
2026-05-07 04:25 -23.43062 -46.47619 2465 ft 14 kts 253°
2026-05-07 04:25 -23.43091 -46.47726 2469 ft 16 kts 253°
2026-05-07 04:25 -23.43124 -46.47846 2469 ft 16 kts 253°
2026-05-07 04:26 -23.43155 -46.47963 2468 ft 16 kts 253°
2026-05-07 04:26 -23.43187 -46.48081 2468 ft 16 kts 253°
2026-05-07 04:26 -23.43220 -46.48200 2470 ft 17 kts 253°
2026-05-07 04:26 -23.43249 -46.48304 2470 ft 13 kts 251°
2026-05-07 04:27 -23.43294 -46.48356 2469 ft 10 kts 196°
2026-05-07 04:27 -23.43365 -46.48345 2472 ft 10 kts 163°
2026-05-07 04:27 -23.43419 -46.48315 2465 ft 3 kts 101°
2026-05-07 04:27 -23.43416 -46.48296 2472 ft 5 kts 80°
2026-05-07 04:28 -23.43387 -46.48179 2470 ft 29 kts 73°
2026-05-07 04:28 -23.43259 -46.47711 2469 ft 103 kts 73°
2026-05-07 04:28 -23.42987 -46.46701 2471 ft 174 kts 73°
2026-05-07 04:28 -23.42591 -46.45252 2653 ft 209 kts 73°
2026-05-07 04:29 -23.42195 -46.43801 3622 ft 202 kts 72°
2026-05-07 04:29 -23.41769 -46.42299 4273 ft 212 kts 71°
2026-05-07 04:29 -23.41303 -46.40708 4512 ft 230 kts 71°
2026-05-07 04:29 -23.40780 -46.38968 4695 ft 252 kts 70°
2026-05-07 04:30 -23.40220 -46.37106 5106 ft 263 kts 70°
2026-05-07 04:30 -23.39504 -46.35241 5555 ft 270 kts 59°
2026-05-07 04:30 -23.38497 -46.33491 6170 ft 274 kts 56°
2026-05-07 04:30 -23.37456 -46.31765 6817 ft 278 kts 55°
2026-05-07 04:31 -23.36382 -46.29975 7443 ft 280 kts 56°
2026-05-07 04:31 -23.35337 -46.28205 8082 ft 282 kts 56°
2026-05-07 04:31 -23.34277 -46.26393 8729 ft 284 kts 57°
2026-05-07 04:31 -23.33212 -46.24564 9361 ft 287 kts 57°
2026-05-07 04:32 -23.32141 -46.22722 9989 ft 290 kts 57°
2026-05-07 04:32 -23.31050 -46.20847 10516 ft 296 kts 57°
2026-05-07 04:32 -23.29912 -46.18889 10663 ft 317 kts 57°
2026-05-07 04:32 -23.28713 -46.16825 10849 ft 337 kts 57°
2026-05-07 04:33 -23.27425 -46.14606 10992 ft 357 kts 58°
2026-05-07 04:33 -23.26069 -46.12270 11301 ft 371 kts 58°
2026-05-07 04:33 -23.24674 -46.09869 11832 ft 378 kts 58°
2026-05-07 04:33 -23.23257 -46.07433 12444 ft 382 kts 58°
2026-05-07 04:34 -23.21734 -46.05080 12989 ft 383 kts 46°
2026-05-07 04:34 -23.19592 -46.03317 13452 ft 391 kts 26°
2026-05-07 04:34 -23.17046 -46.02274 14037 ft 393 kts 19°
2026-05-07 04:34 -23.14437 -46.01331 14517 ft 398 kts 20°
2026-05-07 04:35 -23.12694 -46.00700 14853 ft 399 kts 18°
2026-05-07 04:35 -23.08998 -45.99993 15429 ft 407 kts
2026-05-07 04:35 -23.06166 -45.99724 15943 ft 411 kts
2026-05-07 04:35 -23.04275 -45.99547 16294 ft 413 kts
2026-05-07 04:36 -23.01398 -45.99253 16826 ft 417 kts
2026-05-07 04:36 -22.98511 -45.98929 17343 ft 420 kts
2026-05-07 04:36 -22.95588 -45.98579 17854 ft 425 kts
2026-05-07 04:36 -22.92640 -45.98216 18363 ft 428 kts
2026-05-07 04:37 -22.89662 -45.97853 18787 ft 433 kts
2026-05-07 04:37 -22.86668 -45.97390 19218 ft 437 kts 12°
2026-05-07 04:37 -22.83688 -45.96680 19640 ft 440 kts 14°
2026-05-07 04:37 -22.80705 -45.95857 20049 ft 444 kts 15°
2026-05-07 04:38 -22.77698 -45.95008 20456 ft 449 kts 15°
2026-05-07 04:38 -22.74687 -45.94173 20864 ft 453 kts 14°
2026-05-07 04:38 -22.71618 -45.93346 21285 ft 457 kts 14°
2026-05-07 04:38 -22.68514 -45.92530 21677 ft 461 kts 14°
2026-05-07 04:39 -22.65372 -45.91714 22074 ft 465 kts 14°
2026-05-07 04:39 -22.62209 -45.90900 22478 ft 469 kts 13°
2026-05-07 04:39 -22.59020 -45.90082 22847 ft 473 kts 13°
2026-05-07 04:39 -22.55798 -45.89257 23222 ft 478 kts 13°
2026-05-07 04:40 -22.52542 -45.88421 23599 ft 481 kts 13°
2026-05-07 04:40 -22.49269 -45.87580 23933 ft 485 kts 13°
2026-05-07 04:40 -22.45970 -45.86732 24245 ft 489 kts 13°
2026-05-07 04:40 -22.42653 -45.85881 24553 ft 492 kts 13°
2026-05-07 04:41 -22.39304 -45.85023 24863 ft 495 kts 13°
2026-05-07 04:41 -22.35939 -45.84158 25172 ft 499 kts 13°
2026-05-07 04:41 -22.32596 -45.83300 25456 ft 502 kts 13°
2026-05-07 04:41 -22.29214 -45.82347 25717 ft 504 kts 19°
2026-05-07 04:42 -22.26078 -45.80652 25883 ft 506 kts 38°
2026-05-07 04:42 -22.23351 -45.78259 26128 ft 506 kts 42°
2026-05-07 04:42 -22.20651 -45.75800 26393 ft 510 kts 42°
2026-05-07 04:42 -22.17916 -45.73329 26685 ft 513 kts 41°
2026-05-07 04:43 -22.15146 -45.70865 27008 ft 516 kts 41°
2026-05-07 04:43 -22.12354 -45.68416 27296 ft 519 kts 40°
2026-05-07 04:43 -22.09533 -45.65968 27545 ft 522 kts 40°
2026-05-07 04:43 -22.06681 -45.63511 27801 ft 526 kts 40°
2026-05-07 04:44 -22.03811 -45.61042 28070 ft 529 kts 40°
2026-05-07 04:44 -22.00928 -45.58566 28333 ft 532 kts 40°
2026-05-07 04:44 -21.98026 -45.56073 28576 ft 535 kts 40°
2026-05-07 04:44 -21.95105 -45.53564 28841 ft 538 kts 40°
2026-05-07 04:45 -21.92173 -45.51044 29113 ft 541 kts 40°
2026-05-07 04:45 -21.89221 -45.48509 29340 ft 543 kts 40°
2026-05-07 04:45 -21.86268 -45.45973 29675 ft 543 kts 40°
2026-05-07 04:45 -21.83352 -45.43470 30020 ft 543 kts 40°
2026-05-07 04:46 -21.80392 -45.40931 30354 ft 543 kts 40°
2026-05-07 04:46 -21.77437 -45.38394 30635 ft 543 kts 40°
2026-05-07 04:46 -21.74480 -45.35859 30908 ft 543 kts 40°
2026-05-07 04:46 -21.71511 -45.33317 31106 ft 546 kts 40°
2026-05-07 04:47 -21.65552 -45.28219 31166 ft 545 kts 40°
2026-05-07 04:47 -21.59670 -45.23189 31162 ft 541 kts 40°
2026-05-07 04:48 -21.53780 -45.18158 31189 ft 540 kts 41°
2026-05-07 04:48 -21.47881 -45.13123 31176 ft 541 kts 40°
2026-05-07 04:49 -21.41986 -45.08102 31174 ft 541 kts 40°
2026-05-07 04:49 -21.36086 -45.03077 31174 ft 541 kts 41°
2026-05-07 04:50 -21.30315 -44.98164 31170 ft 541 kts 41°
2026-05-07 04:50 -21.24447 -44.93181 31176 ft 542 kts 41°
2026-05-07 04:51 -21.18522 -44.88149 31172 ft 542 kts 41°
2026-05-07 04:51 -21.12601 -44.83108 31171 ft 543 kts 41°
2026-05-07 04:52 -21.06736 -44.78111 31177 ft 542 kts 41°
2026-05-07 04:52 -21.00739 -44.73213 31172 ft 543 kts 38°
2026-05-07 04:53 -20.94541 -44.68592 31172 ft 543 kts 37°
2026-05-07 04:53 -20.88344 -44.63935 31175 ft 542 kts 38°
2026-05-07 04:54 -20.82247 -44.59272 31181 ft 542 kts 38°
2026-05-07 04:54 -20.76103 -44.54591 31180 ft 542 kts 38°
2026-05-07 04:55 -20.69957 -44.49910 31165 ft 541 kts 38°
2026-05-07 04:55 -20.63820 -44.45238 31177 ft 541 kts 38°
2026-05-07 04:56 -20.57690 -44.40576 31172 ft 541 kts 38°
2026-05-07 04:56 -20.51560 -44.35915 31180 ft 541 kts 38°
2026-05-07 04:57 -20.45422 -44.31254 31170 ft 541 kts 38°
2026-05-07 04:57 -20.39337 -44.26553 31155 ft 536 kts 39°
2026-05-07 04:58 -20.33492 -44.21878 31165 ft 523 kts 40°
2026-05-07 04:58 -20.27681 -44.17235 31166 ft 520 kts 39°
2026-05-07 04:59 -20.21896 -44.12646 31166 ft 517 kts 39°
2026-05-07 04:59 -20.16116 -44.08069 31167 ft 517 kts 39°
2026-05-07 05:00 -20.10334 -44.03498 31168 ft 518 kts 39°
2026-05-07 05:00 -20.04676 -43.99048 31177 ft 520 kts 39°
2026-05-07 05:01 -19.98850 -43.94480 31172 ft 521 kts 39°
2026-05-07 05:01 -19.92999 -43.89897 31176 ft 521 kts 39°
2026-05-07 05:02 -19.87158 -43.85321 31162 ft 521 kts 39°
2026-05-07 05:02 -19.81284 -43.80848 31169 ft 523 kts 37°
2026-05-07 05:03 -19.75251 -43.76534 31157 ft 522 kts 36°
2026-05-07 05:03 -19.69218 -43.72224 31152 ft 522 kts 37°
2026-05-07 05:04 -19.63212 -43.67889 31151 ft 521 kts 37°
2026-05-07 05:04 -19.57233 -43.63561 31152 ft 520 kts 37°
2026-05-07 05:05 -19.51257 -43.59237 31153 ft 519 kts 37°
2026-05-07 05:05 -19.45322 -43.54954 31152 ft 518 kts 37°
2026-05-07 05:06 -19.39366 -43.50659 31149 ft 517 kts 37°
2026-05-07 05:06 -19.33388 -43.46427 31150 ft 518 kts 32°
2026-05-07 05:07 -19.26880 -43.43106 31150 ft 521 kts 20°
2026-05-07 05:07 -19.19986 -43.40727 31158 ft 521 kts 18°
2026-05-07 05:08 -19.13087 -43.38385 31155 ft 520 kts 19°
2026-05-07 05:08 -19.06207 -43.35995 31154 ft 520 kts 19°
2026-05-07 05:09 -18.99401 -43.33610 31157 ft 519 kts 19°
2026-05-07 05:09 -18.92542 -43.31207 31157 ft 518 kts 19°
2026-05-07 05:10 -18.85698 -43.28823 31156 ft 518 kts 19°
2026-05-07 05:10 -18.78852 -43.26451 31156 ft 518 kts 19°
2026-05-07 05:11 -18.72007 -43.24082 31147 ft 518 kts 19°
2026-05-07 05:11 -18.65129 -43.21729 31161 ft 520 kts 18°
2026-05-07 05:12 -18.58208 -43.19462 31163 ft 522 kts 18°
2026-05-07 05:12 -18.51258 -43.17195 31158 ft 523 kts 18°
2026-05-07 05:13 -18.44342 -43.14924 31160 ft 524 kts 18°
2026-05-07 05:13 -18.37389 -43.12587 31151 ft 524 kts 20°
2026-05-07 05:14 -18.30544 -43.09920 31149 ft 523 kts 22°
2026-05-07 05:14 -18.23735 -43.07195 31153 ft 523 kts 22°
2026-05-07 05:15 -18.16928 -43.04495 31152 ft 522 kts 21°
2026-05-07 05:15 -18.10165 -43.01837 31163 ft 522 kts 21°
2026-05-07 05:16 -18.03507 -42.99225 31146 ft 520 kts 21°
2026-05-07 05:16 -17.96745 -42.96574 31147 ft 518 kts 21°
2026-05-07 05:17 -17.89974 -42.93921 31155 ft 518 kts 21°
2026-05-07 05:17 -17.83217 -42.91278 31141 ft 518 kts 21°
2026-05-07 05:18 -17.76487 -42.88642 31145 ft 519 kts 21°
2026-05-07 05:18 -17.69697 -42.85986 31154 ft 521 kts 21°
2026-05-07 05:19 -17.62888 -42.83327 31147 ft 522 kts 21°
2026-05-07 05:19 -17.56074 -42.80666 31152 ft 522 kts 21°
2026-05-07 05:20 -17.49264 -42.78011 31136 ft 520 kts 21°
2026-05-07 05:20 -17.42527 -42.75389 31130 ft 518 kts 21°
2026-05-07 05:21 -17.33533 -42.71905 31130 ft 516 kts 21°
2026-05-07 05:22 -17.26807 -42.69298 31133 ft 515 kts 21°
2026-05-07 05:22 -17.20079 -42.66691 31139 ft 515 kts 21°
2026-05-07 05:23 -17.13325 -42.64073 31126 ft 517 kts 21°
2026-05-07 05:23 -17.06560 -42.61457 31130 ft 519 kts 21°
2026-05-07 05:24 -16.99830 -42.58858 31134 ft 518 kts 21°
2026-05-07 05:24 -16.93063 -42.56243 31112 ft 517 kts 21°
2026-05-07 05:25 -16.86325 -42.53642 31122 ft 515 kts 21°
2026-05-07 05:25 -16.79592 -42.51048 31113 ft 514 kts 21°
2026-05-07 05:26 -16.72927 -42.48477 31119 ft 513 kts 21°
2026-05-07 05:26 -16.66234 -42.45900 31123 ft 513 kts 21°
2026-05-07 05:27 -16.59526 -42.43326 31122 ft 514 kts 21°
2026-05-07 05:27 -16.52808 -42.40753 31125 ft 515 kts 21°
2026-05-07 05:28 -16.46360 -42.38266 31121 ft 515 kts 21°
2026-05-07 05:28 -16.39694 -42.35694 31107 ft 513 kts 21°
2026-05-07 05:29 -16.33013 -42.33118 31106 ft 511 kts 21°
2026-05-07 05:29 -16.26339 -42.30554 31117 ft 509 kts 21°
2026-05-07 05:30 -16.19733 -42.28013 31112 ft 509 kts 21°
2026-05-07 05:30 -16.13165 -42.25261 31122 ft 508 kts 27°
2026-05-07 05:31 -16.06806 -42.22014 31133 ft 510 kts 27°
2026-05-07 05:31 -16.00432 -42.18725 31141 ft 512 kts 27°
2026-05-07 05:32 -15.94071 -42.15481 31116 ft 508 kts 27°
2026-05-07 05:32 -15.87768 -42.12286 31116 ft 506 kts 27°
2026-05-07 05:33 -15.81441 -42.09086 31126 ft 506 kts 27°
2026-05-07 05:33 -15.75101 -42.05880 31120 ft 507 kts 27°
2026-05-07 05:34 -15.68746 -42.02669 31124 ft 509 kts 27°
2026-05-07 05:34 -15.62492 -41.99509 31126 ft 509 kts 27°
2026-05-07 05:35 -15.56118 -41.96290 31131 ft 510 kts 26°
2026-05-07 05:35 -15.49724 -41.93066 31117 ft 510 kts 26°
2026-05-07 05:36 -15.43393 -41.89878 31122 ft 508 kts 26°
2026-05-07 05:36 -15.37030 -41.86672 31121 ft 507 kts 26°
2026-05-07 05:37 -15.30688 -41.83477 31118 ft 506 kts 26°
2026-05-07 05:37 -15.24346 -41.80287 31112 ft 506 kts 26°
2026-05-07 05:38 -15.18041 -41.77118 31130 ft 507 kts 26°
2026-05-07 05:38 -15.11680 -41.73924 31115 ft 507 kts 26°
2026-05-07 05:39 -15.05332 -41.70738 31116 ft 507 kts 26°
2026-05-07 05:39 -14.98983 -41.67551 31103 ft 507 kts 26°
2026-05-07 05:40 -14.92669 -41.64383 31102 ft 507 kts 26°
2026-05-07 05:40 -14.86323 -41.61205 31108 ft 507 kts 26°
2026-05-07 05:41 -14.79975 -41.58028 31097 ft 507 kts 26°
2026-05-07 05:41 -14.73611 -41.54844 31107 ft 506 kts 26°
2026-05-07 05:42 -14.67322 -41.51700 31087 ft 504 kts 26°
2026-05-07 05:42 -14.61025 -41.48553 31087 ft 500 kts 26°
2026-05-07 05:43 -14.54762 -41.45425 31078 ft 498 kts 26°
2026-05-07 05:43 -14.48531 -41.42316 31087 ft 497 kts 26°
2026-05-07 05:44 -14.42300 -41.39208 31097 ft 498 kts 26°
2026-05-07 05:44 -14.36082 -41.36108 31095 ft 500 kts 26°
2026-05-07 05:45 -14.29789 -41.32970 31100 ft 502 kts 26°
2026-05-07 05:45 -14.23493 -41.29840 31083 ft 503 kts 26°
2026-05-07 05:46 -14.17196 -41.26704 31086 ft 501 kts 26°
2026-05-07 05:46 -14.10954 -41.23600 31084 ft 500 kts 26°
2026-05-07 05:47 -14.04692 -41.20488 31078 ft 499 kts 26°
2026-05-07 05:47 -13.98445 -41.17385 31083 ft 498 kts 26°
2026-05-07 05:48 -13.92215 -41.14292 31077 ft 496 kts 26°
2026-05-07 05:48 -13.86004 -41.11211 31078 ft 495 kts 26°
2026-05-07 05:49 -13.79799 -41.08146 31069 ft 493 kts 26°
2026-05-07 05:49 -13.73612 -41.05091 31077 ft 493 kts 26°
2026-05-07 05:50 -13.67468 -41.02055 31085 ft 494 kts 25°
2026-05-07 05:50 -13.61399 -40.99063 31091 ft 495 kts 26°
2026-05-07 05:51 -13.55177 -40.95993 31081 ft 497 kts 26°
2026-05-07 05:51 -13.48924 -40.92911 31092 ft 498 kts 25°
2026-05-07 05:52 -13.42675 -40.89831 31091 ft 498 kts 25°
2026-05-07 05:52 -13.36456 -40.86770 31082 ft 497 kts 25°
2026-05-07 05:53 -13.30223 -40.83701 31066 ft 496 kts 25°
2026-05-07 05:53 -13.24002 -40.80640 31064 ft 494 kts 25°
2026-05-07 05:54 -13.17793 -40.77587 31073 ft 494 kts 25°
2026-05-07 05:54 -13.11599 -40.74540 31073 ft 494 kts 25°
2026-05-07 05:55 -13.05386 -40.71479 31060 ft 496 kts 25°
2026-05-07 05:55 -12.99205 -40.68433 31078 ft 497 kts 25°
2026-05-07 05:56 -12.92976 -40.65366 31066 ft 496 kts 25°
2026-05-07 05:56 -12.86737 -40.62298 31057 ft 496 kts 25°
2026-05-07 05:57 -12.80555 -40.59257 31042 ft 495 kts 25°
2026-05-07 05:57 -12.74337 -40.56199 31053 ft 494 kts 25°
2026-05-07 05:58 -12.68143 -40.53158 31052 ft 494 kts 25°
2026-05-07 05:58 -12.61938 -40.50113 31056 ft 495 kts 25°
2026-05-07 05:59 -12.55750 -40.47077 31048 ft 496 kts 25°
2026-05-07 05:59 -12.49521 -40.44026 31048 ft 497 kts 25°
2026-05-07 06:00 -12.43281 -40.40966 31040 ft 496 kts 25°
2026-05-07 06:00 -12.37061 -40.37919 31042 ft 495 kts 25°
2026-05-07 06:01 -12.30839 -40.34872 31032 ft 495 kts 24°
2026-05-07 06:01 -12.24626 -40.31833 31045 ft 495 kts 25°
2026-05-07 06:02 -12.18407 -40.28789 31040 ft 495 kts 24°
2026-05-07 06:02 -12.12203 -40.25756 31044 ft 496 kts 24°
2026-05-07 06:03 -12.05964 -40.22707 31041 ft 496 kts 24°
2026-05-07 06:03 -11.99739 -40.19666 31036 ft 496 kts 24°
2026-05-07 06:04 -11.93537 -40.16643 31043 ft 497 kts 24°
2026-05-07 06:04 -11.87304 -40.13602 31040 ft 496 kts 24°
2026-05-07 06:05 -11.81064 -40.10558 31039 ft 496 kts 24°
2026-05-07 06:05 -11.74828 -40.07517 31044 ft 496 kts 24°
2026-05-07 06:06 -11.68591 -40.04479 31047 ft 496 kts 24°
2026-05-07 06:06 -11.62407 -40.01469 31052 ft 495 kts 24°
2026-05-07 06:07 -11.56300 -39.98496 31037 ft 494 kts 24°
2026-05-07 06:07 -11.50086 -39.95484 31033 ft 494 kts 24°
2026-05-07 06:08 -11.43884 -39.92477 31038 ft 493 kts 24°
2026-05-07 06:08 -11.37717 -39.89489 31039 ft 494 kts 24°
2026-05-07 06:09 -11.32512 -39.86968 31040 ft 495 kts 24°
2026-05-07 06:09 -11.25280 -39.83458 31028 ft 496 kts 24°
2026-05-07 06:10 -11.19042 -39.80437 31044 ft 497 kts 23°
2026-05-07 06:10 -11.13804 -39.77903 31039 ft 498 kts 23°
2026-05-07 06:11 -11.07576 -39.74895 31033 ft 498 kts 23°
2026-05-07 06:11 -11.01326 -39.71869 31015 ft 496 kts 23°
2026-05-07 06:12 -10.95105 -39.68857 31027 ft 495 kts 23°
2026-05-07 06:12 -10.88887 -39.65851 31029 ft 494 kts 23°
2026-05-07 06:13 -10.82697 -39.62865 31035 ft 494 kts 23°
2026-05-07 06:13 -10.76476 -39.59864 31034 ft 495 kts 23°
2026-05-07 06:14 -10.70247 -39.56857 31041 ft 495 kts 22°
2026-05-07 06:14 -10.64008 -39.53846 31029 ft 496 kts 22°
2026-05-07 06:15 -10.57767 -39.50838 31031 ft 496 kts 22°
2026-05-07 06:15 -10.51525 -39.47831 31030 ft 496 kts 22°
2026-05-07 06:16 -10.45298 -39.44830 31026 ft 495 kts 22°
2026-05-07 06:16 -10.39075 -39.41837 31032 ft 495 kts 22°
2026-05-07 06:17 -10.32890 -39.38864 31033 ft 494 kts 22°
2026-05-07 06:17 -10.26672 -39.35875 31031 ft 495 kts 22°
2026-05-07 06:18 -10.20448 -39.32884 31020 ft 495 kts 22°
2026-05-07 06:18 -10.14226 -39.29895 31029 ft 494 kts 22°
2026-05-07 06:19 -10.08005 -39.26905 31029 ft 494 kts 22°
2026-05-07 06:19 -10.01831 -39.23938 31027 ft 494 kts 22°
2026-05-07 06:20 -9.95621 -39.20955 31004 ft 494 kts 22°
2026-05-07 06:20 -9.89402 -39.17970 31017 ft 495 kts 22°
2026-05-07 06:21 -9.83174 -39.14993 31026 ft 495 kts 21°
2026-05-07 06:21 -9.76892 -39.12086 31028 ft 496 kts 20°
2026-05-07 06:22 -9.70594 -39.09199 31018 ft 496 kts 21°
2026-05-07 06:22 -9.61209 -39.04873 31011 ft 495 kts 21°
2026-05-07 06:23 -9.54951 -39.01978 31028 ft 494 kts 21°
2026-05-07 06:23 -9.48805 -38.99141 31018 ft 493 kts 21°
2026-05-07 06:24 -9.42546 -38.96256 31013 ft 494 kts 21°
2026-05-07 06:24 -9.36333 -38.93387 31016 ft 494 kts 21°
2026-05-07 06:25 -9.30068 -38.90502 31017 ft 495 kts 21°
2026-05-07 06:25 -9.23796 -38.87613 31015 ft 496 kts 21°
2026-05-07 06:26 -9.17510 -38.84714 31005 ft 497 kts 21°
2026-05-07 06:26 -9.11205 -38.81812 31012 ft 497 kts 21°
2026-05-07 06:27 -9.04915 -38.78917 31005 ft 497 kts 21°
2026-05-07 06:27 -8.98620 -38.76019 31001 ft 497 kts 21°
2026-05-07 06:28 -8.92321 -38.73122 31000 ft 496 kts 21°
2026-05-07 06:28 -8.86084 -38.70255 30986 ft 496 kts 21°
2026-05-07 06:29 -8.79778 -38.67360 31285 ft 499 kts 20°
2026-05-07 06:29 -8.76620 -38.65911 31756 ft 495 kts 20°
2026-05-07 06:29 -8.73492 -38.64475 32254 ft 491 kts 20°
2026-05-07 06:30 -8.70394 -38.63054 32701 ft 488 kts 20°
2026-05-07 06:30 -8.67302 -38.61637 33036 ft 488 kts 20°
2026-05-07 06:30 -8.61053 -38.58777 33013 ft 493 kts 20°
2026-05-07 06:31 -8.54842 -38.55925 32999 ft 486 kts 20°
2026-05-07 06:31 -8.48721 -38.53106 32987 ft 481 kts 20°
2026-05-07 06:32 -8.42658 -38.50312 33014 ft 484 kts 20°
2026-05-07 06:32 -8.36458 -38.47459 33013 ft 491 kts 20°
2026-05-07 06:33 -8.30282 -38.44613 32999 ft 489 kts 20°
2026-05-07 06:33 -8.24103 -38.41774 33002 ft 486 kts 20°
2026-05-07 06:34 -8.17955 -38.38956 32997 ft 483 kts 20°
2026-05-07 06:34 -8.11853 -38.36159 33001 ft 480 kts 20°
2026-05-07 06:35 -8.05818 -38.33393 33001 ft 478 kts 20°
2026-05-07 06:35 -7.99777 -38.30624 33006 ft 477 kts 20°
2026-05-07 06:36 -7.93721 -38.27849 33001 ft 477 kts 20°
2026-05-07 06:36 -7.87710 -38.25098 33003 ft 477 kts 20°
2026-05-07 06:37 -7.81669 -38.22329 32996 ft 478 kts 20°
2026-05-07 06:37 -7.75607 -38.19557 32996 ft 478 kts 20°
2026-05-07 06:38 -7.69533 -38.16786 33001 ft 479 kts 20°
2026-05-07 06:38 -7.63448 -38.14019 32993 ft 479 kts 21°
2026-05-07 06:39 -7.57404 -38.11266 32996 ft 479 kts 21°
2026-05-07 06:39 -7.51331 -38.08497 32976 ft 478 kts 20°
2026-05-07 06:40 -7.45281 -38.05742 32983 ft 476 kts 21°
2026-05-07 06:40 -7.39250 -38.02997 32977 ft 475 kts 21°
2026-05-07 06:41 -7.33236 -38.00260 32974 ft 474 kts 21°
2026-05-07 06:41 -7.27338 -37.97576 32973 ft 474 kts 21°
2026-05-07 06:42 -7.21352 -37.94854 32970 ft 474 kts 21°
2026-05-07 06:42 -7.15340 -37.92119 32965 ft 474 kts 21°
2026-05-07 06:43 -7.09316 -37.89372 32967 ft 474 kts 21°
2026-05-07 06:43 -7.03322 -37.86635 32964 ft 475 kts 21°
2026-05-07 06:44 -6.97313 -37.83890 32965 ft 475 kts 21°
2026-05-07 06:44 -6.91271 -37.81130 32959 ft 476 kts 21°
2026-05-07 06:45 -6.85273 -37.78397 32959 ft 475 kts 21°
2026-05-07 06:45 -6.79238 -37.75645 32952 ft 475 kts 21°
2026-05-07 06:46 -6.73210 -37.72904 32960 ft 475 kts 21°
2026-05-07 06:46 -6.67193 -37.70171 32953 ft 474 kts 21°
2026-05-07 06:47 -6.61180 -37.67441 32944 ft 474 kts 21°
2026-05-07 06:47 -6.55171 -37.64714 32948 ft 473 kts 21°
2026-05-07 06:48 -6.49210 -37.62004 32952 ft 473 kts 21°
2026-05-07 06:48 -6.43205 -37.59275 32950 ft 473 kts 21°
2026-05-07 06:49 -6.37205 -37.56556 32955 ft 472 kts 21°
2026-05-07 06:49 -6.31211 -37.53834 32948 ft 473 kts 21°
2026-05-07 06:50 -6.25207 -37.51108 32950 ft 473 kts 21°
2026-05-07 06:50 -6.19240 -37.48403 32948 ft 473 kts 21°
2026-05-07 06:51 -6.13231 -37.45676 32948 ft 474 kts 21°
2026-05-07 06:51 -6.07218 -37.42951 32944 ft 474 kts 21°
2026-05-07 06:52 -6.01207 -37.40226 32938 ft 473 kts 21°
2026-05-07 06:52 -5.95209 -37.37518 32941 ft 473 kts 21°
2026-05-07 06:53 -5.89236 -37.34827 32937 ft 473 kts 21°
2026-05-07 06:53 -5.83231 -37.32118 32933 ft 472 kts 21°
2026-05-07 06:54 -5.77240 -37.29415 32935 ft 472 kts 21°
2026-05-07 06:54 -5.71197 -37.26672 32946 ft 482 kts 22°
2026-05-07 06:55 -5.65037 -37.23839 32955 ft 492 kts 22°
2026-05-07 06:55 -5.58794 -37.20971 32925 ft 492 kts 22°
2026-05-07 06:56 -5.53608 -37.18593 32922 ft 492 kts 22°
2026-05-07 06:56 -5.46380 -37.15284 32924 ft 490 kts 22°
2026-05-07 06:57 -5.41217 -37.12927 32919 ft 489 kts 22°
2026-05-07 06:57 -5.35016 -37.10107 32926 ft 488 kts 22°
2026-05-07 06:58 -5.28858 -37.07305 32925 ft 488 kts 22°
2026-05-07 06:58 -5.22692 -37.04497 32923 ft 488 kts 22°
2026-05-07 06:59 -5.16504 -37.01679 32921 ft 488 kts 22°
2026-05-07 06:59 -5.10431 -36.98915 32919 ft 488 kts 22°
2026-05-07 07:00 -5.04235 -36.96092 32917 ft 488 kts 22°
2026-05-07 07:00 -4.98053 -36.93281 32931 ft 488 kts 22°
2026-05-07 07:01 -4.91904 -36.90479 32929 ft 488 kts 22°
2026-05-07 07:01 -4.85727 -36.87652 32921 ft 488 kts 22°
2026-05-07 07:02 -4.79549 -36.84824 32911 ft 487 kts 22°
2026-05-07 07:02 -4.73378 -36.81999 32927 ft 487 kts 22°
2026-05-07 07:03 -4.67204 -36.79180 32921 ft 486 kts 22°
2026-05-07 07:03 -4.61054 -36.76377 32906 ft 486 kts 22°
2026-05-07 07:04 -4.54907 -36.73576 32923 ft 485 kts 22°
2026-05-07 07:04 -4.48811 -36.70797 32921 ft 485 kts 22°
2026-05-07 07:05 -4.42675 -36.67999 32923 ft 485 kts 22°
2026-05-07 07:05 -4.36529 -36.65199 32917 ft 485 kts 23°
2026-05-07 07:06 -4.30376 -36.62393 32925 ft 485 kts 23°
2026-05-07 07:06 -4.24220 -36.59589 32917 ft 486 kts 22°
2026-05-07 07:07 -4.18063 -36.56785 32918 ft 486 kts 22°
2026-05-07 07:07 -4.11912 -36.53985 32921 ft 486 kts 22°
2026-05-07 07:08 -4.05765 -36.51185 32920 ft 486 kts 23°
2026-05-07 07:08 -3.99623 -36.48387 32920 ft 485 kts 23°
2026-05-07 07:09 -3.93517 -36.45609 32917 ft 485 kts 23°
2026-05-07 07:09 -3.87367 -36.42810 32920 ft 485 kts 23°
2026-05-07 07:10 -3.81224 -36.40015 32923 ft 485 kts 23°
2026-05-07 07:10 -3.75075 -36.37214 32915 ft 485 kts 23°
2026-05-07 07:11 -3.68923 -36.34418 32921 ft 486 kts 23°
2026-05-07 07:11 -3.62768 -36.31618 32920 ft 485 kts 22°
2026-05-07 07:12 -3.56648 -36.28835 32918 ft 485 kts 24°
2026-05-07 07:12 -3.50492 -36.26033 32923 ft 485 kts 23°
2026-05-07 07:13 -3.44388 -36.23261 32917 ft 483 kts 23°
2026-05-07 07:13 -3.38267 -36.20478 32916 ft 482 kts 24°
2026-05-07 07:14 -3.32157 -36.17697 32917 ft 482 kts 24°
2026-05-07 07:14 -3.26049 -36.14925 32923 ft 482 kts 23°
2026-05-07 07:15 -3.19932 -36.12147 32917 ft 483 kts 22°
2026-05-07 07:15 -3.13808 -36.09361 32919 ft 483 kts 23°
2026-05-07 07:16 -3.07681 -36.06575 32912 ft 483 kts 23°
2026-05-07 07:16 -3.01594 -36.03809 32917 ft 483 kts 23°
2026-05-07 07:17 -2.95476 -36.01034 32921 ft 483 kts 24°
2026-05-07 07:17 -2.89469 -35.98310 32920 ft 483 kts 24°
2026-05-07 07:18 -2.83351 -35.95523 32917 ft 482 kts 23°
2026-05-07 07:18 -2.77262 -35.92760 32924 ft 482 kts 24°
2026-05-07 07:19 -2.71163 -35.89997 32918 ft 482 kts 24°
2026-05-07 07:19 -2.65049 -35.87221 32921 ft 483 kts 24°
2026-05-07 07:20 -2.58924 -35.84441 32921 ft 483 kts 24°
2026-05-07 07:20 -2.52798 -35.81660 32922 ft 484 kts 24°
2026-05-07 07:21 -2.46704 -35.78896 32922 ft 483 kts 24°
2026-05-07 07:21 -2.40574 -35.76114 32927 ft 483 kts 24°
2026-05-07 07:22 -2.34447 -35.73332 32928 ft 483 kts 23°
2026-05-07 07:22 -2.28363 -35.70573 32926 ft 483 kts 23°
2026-05-07 07:23 -2.22247 -35.67800 32926 ft 482 kts 24°
2026-05-07 07:23 -2.16129 -35.65024 32924 ft 482 kts 24°
2026-05-07 07:24 -2.10020 -35.62254 32927 ft 481 kts 24°
2026-05-07 07:24 -2.03910 -35.59484 32927 ft 481 kts 24°
2026-05-07 07:25 -1.94805 -35.55353 32928 ft 481 kts 24°
2026-05-07 07:26 -1.88699 -35.52584 32929 ft 482 kts 24°
2026-05-07 07:26 -1.82592 -35.49814 32918 ft 481 kts 23°
2026-05-07 07:27 -1.76446 -35.47053 32916 ft 483 kts 24°
2026-05-07 07:27 -1.70440 -35.44006 32929 ft 482 kts 28°
2026-05-07 07:28 -1.64614 -35.40727 32918 ft 480 kts 28°
2026-05-07 07:28 -1.58846 -35.37483 32933 ft 477 kts 28°
2026-05-07 07:29 -1.52986 -35.34318 32941 ft 479 kts 28°
2026-05-07 07:29 -1.47109 -35.31121 32929 ft 480 kts 28°
2026-05-07 07:30 -1.41278 -35.27925 32932 ft 481 kts 28°
2026-05-07 07:30 -1.35404 -35.24700 32930 ft 482 kts 29°
2026-05-07 07:31 -1.29530 -35.21473 32939 ft 482 kts 28°
2026-05-07 07:31 -1.23660 -35.18228 32922 ft 484 kts 29°
2026-05-07 07:32 -1.17869 -35.14984 32943 ft 477 kts 28°
2026-05-07 07:32 -1.12014 -35.11828 32940 ft 478 kts 28°
2026-05-07 07:33 -1.06154 -35.08640 32936 ft 480 kts 29°
2026-05-07 07:33 -1.00285 -35.05422 32935 ft 482 kts 29°
2026-05-07 07:34 -0.94385 -35.02232 32936 ft 482 kts 28°
2026-05-07 07:34 -0.88647 -34.99065 32936 ft 485 kts 30°
2026-05-07 07:35 -0.82815 -34.95713 32907 ft 478 kts 31°
2026-05-07 07:35 -0.77021 -34.92469 32923 ft 479 kts 28°
2026-05-07 07:36 -0.71113 -34.89298 32936 ft 486 kts 28°
2026-05-07 07:36 -0.65171 -34.86138 32940 ft 487 kts 29°
2026-05-07 07:37 -0.59219 -34.82912 32932 ft 486 kts 29°
2026-05-07 07:37 -0.53284 -34.79648 32939 ft 485 kts 30°
2026-05-07 07:38 -0.47363 -34.76387 32932 ft 485 kts 30°
2026-05-07 07:38 -0.41462 -34.73143 32930 ft 483 kts 29°
2026-05-07 07:39 -0.35563 -34.69921 32935 ft 482 kts 29°
2026-05-07 07:39 -0.29714 -34.66638 32945 ft 481 kts 30°
2026-05-07 07:40 -0.23864 -34.63442 32940 ft 482 kts 29°
2026-05-07 07:40 -0.17949 -34.60242 32939 ft 484 kts 29°
2026-05-07 07:41 -0.12025 -34.57005 32930 ft 485 kts 30°
2026-05-07 07:41 -0.06093 -34.53748 32935 ft 486 kts 30°
2026-05-07 07:42 -0.00201 -34.50515 32941 ft 486 kts 30°
2026-05-07 07:42 0.05733 -34.47264 32932 ft 487 kts 30°
2026-05-07 07:43 0.11669 -34.44002 32931 ft 487 kts 30°
2026-05-07 07:43 0.17600 -34.40749 32938 ft 486 kts 30°
2026-05-07 07:44 0.23517 -34.37499 32923 ft 483 kts 30°
2026-05-07 07:44 0.28379 -34.34778 32933 ft 480 kts 29°
2026-05-07 07:45 0.34272 -34.31604 32934 ft 481 kts 30°
2026-05-07 07:45 0.40142 -34.28328 32941 ft 485 kts 30°
2026-05-07 07:46 0.46081 -34.25080 32932 ft 488 kts 30°
2026-05-07 07:46 0.51971 -34.21797 32941 ft 489 kts 30°
2026-05-07 07:47 0.57981 -34.18567 32949 ft 490 kts 29°
2026-05-07 07:47 0.63992 -34.15302 32935 ft 490 kts 30°
2026-05-07 07:48 0.69928 -34.12048 32928 ft 489 kts 30°
2026-05-07 07:48 0.75856 -34.08736 32929 ft 487 kts 29°
2026-05-07 07:49 0.81825 -34.05549 32931 ft 487 kts 30°
2026-05-07 07:49 0.87713 -34.02293 32946 ft 484 kts 31°
2026-05-07 07:50 0.93462 -33.99049 32932 ft 484 kts 30°
2026-05-07 07:50 0.99396 -33.95793 32944 ft 487 kts 29°
2026-05-07 07:51 1.05354 -33.92581 32932 ft 487 kts 30°
2026-05-07 07:51 1.11273 -33.89330 32949 ft 485 kts 29°
2026-05-07 07:52 1.17215 -33.86051 32957 ft 488 kts 29°
2026-05-07 07:52 1.23171 -33.82853 32944 ft 489 kts 29°
2026-05-07 07:53 1.29185 -33.79590 32958 ft 493 kts 29°
2026-05-07 07:53 1.35182 -33.76268 32945 ft 492 kts 29°
2026-05-07 07:54 1.41152 -33.72948 32947 ft 491 kts 30°
2026-05-07 07:54 1.47107 -33.69665 32949 ft 491 kts 30°
2026-05-07 07:55 1.53074 -33.66331 32943 ft 489 kts 30°
2026-05-07 07:55 1.59087 -33.63150 32920 ft 487 kts 29°
2026-05-07 07:56 1.64966 -33.59889 32929 ft 483 kts 31°
2026-05-07 07:56 1.70818 -33.56593 32936 ft 482 kts 28°
2026-05-07 07:57 1.76732 -33.53399 32942 ft 483 kts 29°
2026-05-07 07:57 1.82648 -33.50160 32947 ft 486 kts 29°
2026-05-07 07:58 1.88597 -33.46876 32948 ft 489 kts 29°
2026-05-07 07:58 1.94541 -33.43599 32934 ft 492 kts 29°
2026-05-07 07:59 2.00550 -33.40296 32947 ft 493 kts 29°
2026-05-07 07:59 2.06567 -33.36988 32936 ft 493 kts 29°
2026-05-07 08:00 2.12565 -33.33689 32934 ft 491 kts 29°
2026-05-07 08:00 2.18547 -33.30399 32941 ft 490 kts 29°
2026-05-07 08:01 2.24516 -33.27115 32938 ft 489 kts 29°
2026-05-07 08:01 2.30450 -33.23850 32939 ft 489 kts 29°
2026-05-07 08:02 2.36422 -33.20563 32947 ft 489 kts 29°
2026-05-07 08:02 2.42403 -33.17273 32939 ft 490 kts 29°
2026-05-07 08:03 2.48388 -33.13980 32950 ft 492 kts 29°
2026-05-07 08:03 2.54389 -33.10677 32938 ft 493 kts 29°
2026-05-07 08:04 2.60367 -33.07386 32934 ft 494 kts 29°
2026-05-07 08:04 2.66399 -33.04067 32941 ft 495 kts 29°
2026-05-07 08:05 2.72442 -33.00741 32939 ft 495 kts 29°
2026-05-07 08:05 2.78380 -32.97470 32945 ft 494 kts 29°
2026-05-07 08:06 2.84370 -32.94166 32948 ft 494 kts 29°
2026-05-07 08:06 2.90409 -32.90842 32940 ft 494 kts 29°
2026-05-07 08:07 2.96432 -32.87526 32938 ft 493 kts 29°
2026-05-07 08:07 3.02428 -32.84222 32941 ft 492 kts 29°
2026-05-07 08:08 3.08435 -32.80912 32942 ft 492 kts 29°
2026-05-07 08:08 3.14391 -32.77631 32940 ft 491 kts 29°
2026-05-07 08:09 3.20383 -32.74329 32944 ft 491 kts 29°
2026-05-07 08:09 3.26385 -32.71021 32939 ft 492 kts 29°
2026-05-07 08:10 3.32387 -32.67714 32951 ft 492 kts 29°
2026-05-07 08:10 3.38406 -32.64390 32943 ft 494 kts 29°
2026-05-07 08:11 3.44422 -32.61074 32941 ft 493 kts 29°
2026-05-07 08:11 3.50404 -32.57775 32938 ft 494 kts 29°
2026-05-07 08:12 3.56439 -32.54453 32949 ft 495 kts 29°
2026-05-07 08:12 3.62486 -32.51131 32948 ft 496 kts 29°
2026-05-07 08:13 3.68552 -32.47796 32962 ft 495 kts 29°
2026-05-07 08:13 3.74560 -32.44500 32939 ft 496 kts 29°
2026-05-07 08:14 3.80593 -32.41162 32936 ft 495 kts 29°
2026-05-07 08:14 3.86637 -32.37820 32947 ft 496 kts 29°
2026-05-07 08:15 3.92654 -32.34503 32939 ft 497 kts 28°
2026-05-07 08:15 3.98730 -32.31171 32942 ft 496 kts 29°
2026-05-07 08:16 4.04732 -32.27843 32942 ft 495 kts 29°
2026-05-07 08:16 4.10770 -32.24507 32943 ft 495 kts 29°
2026-05-07 08:17 4.16809 -32.21176 32944 ft 494 kts 29°
2026-05-07 08:17 4.22827 -32.17855 32941 ft 494 kts 29°
2026-05-07 08:18 4.28810 -32.14552 32938 ft 493 kts 29°
2026-05-07 08:18 4.34830 -32.11230 32937 ft 493 kts 29°
2026-05-07 08:19 4.40838 -32.07913 32938 ft 492 kts 29°
2026-05-07 08:19 4.46843 -32.04597 32947 ft 492 kts 29°
2026-05-07 08:20 4.52841 -32.01285 32942 ft 492 kts 28°
2026-05-07 08:20 4.58728 -31.98034 32940 ft 492 kts 28°
2026-05-07 08:21 4.64688 -31.94740 32936 ft 492 kts 28°
2026-05-07 08:21 4.70689 -31.91423 32943 ft 492 kts 28°
2026-05-07 08:22 4.76694 -31.88103 32941 ft 492 kts 28°
2026-05-07 08:22 4.82658 -31.84808 32943 ft 492 kts 28°
2026-05-07 08:23 4.88659 -31.81487 32941 ft 492 kts 28°
2026-05-07 08:23 4.94673 -31.78163 32948 ft 492 kts 29°
2026-05-07 08:24 5.00664 -31.74847 32943 ft 492 kts 29°
2026-05-07 08:24 5.06663 -31.71524 32939 ft 492 kts 29°
2026-05-07 08:25 5.12624 -31.68227 32935 ft 491 kts 29°
2026-05-07 08:25 5.18617 -31.64908 32943 ft 491 kts 29°
2026-05-07 08:26 5.27578 -31.59918 32941 ft 491 kts 29°
2026-05-07 08:26 5.33540 -31.56560 32945 ft 491 kts 29°
2026-05-07 08:27 5.39505 -31.53198 32944 ft 491 kts 29°
2026-05-07 08:27 5.45433 -31.49865 32941 ft 492 kts 29°
2026-05-07 08:28 5.51417 -31.46502 32945 ft 493 kts 29°
2026-05-07 08:28 5.57405 -31.43132 32940 ft 493 kts 29°
2026-05-07 08:29 5.63385 -31.39765 32941 ft 493 kts 29°
2026-05-07 08:29 5.69375 -31.36395 32940 ft 493 kts 29°
2026-05-07 08:30 5.75322 -31.33048 32945 ft 493 kts 29°
2026-05-07 08:30 5.81297 -31.29683 32940 ft 492 kts 29°
2026-05-07 08:31 5.87276 -31.26315 32946 ft 492 kts 29°
2026-05-07 08:31 5.92247 -31.23515 32940 ft 492 kts 29°
2026-05-07 08:32 5.98219 -31.20154 32950 ft 492 kts 29°
2026-05-07 08:32 6.04188 -31.16786 32942 ft 492 kts 29°
2026-05-07 08:33 6.10161 -31.13417 32946 ft 492 kts 29°
2026-05-07 08:33 6.16145 -31.10047 32945 ft 493 kts 29°
2026-05-07 08:34 6.22124 -31.06673 32943 ft 493 kts 29°
2026-05-07 08:34 6.28103 -31.03298 32945 ft 493 kts 29°
2026-05-07 08:35 6.34011 -30.99967 32943 ft 492 kts 29°
2026-05-07 08:35 6.39917 -30.96631 32952 ft 492 kts 29°
2026-05-07 08:36 6.45895 -30.93255 32943 ft 492 kts 29°
2026-05-07 08:36 6.51877 -30.89874 32952 ft 493 kts 29°
2026-05-07 08:37 6.57830 -30.86512 32939 ft 493 kts 29°
2026-05-07 08:37 6.63809 -30.83131 32947 ft 493 kts 29°
2026-05-07 08:38 6.69793 -30.79750 32944 ft 493 kts 29°
2026-05-07 08:38 6.75783 -30.76365 32944 ft 493 kts 29°
2026-05-07 08:39 6.81780 -30.72973 32950 ft 494 kts 29°
2026-05-07 08:39 6.87734 -30.69603 32947 ft 494 kts 29°
2026-05-07 08:40 6.93740 -30.66205 32939 ft 494 kts 29°
2026-05-07 08:40 6.99739 -30.62809 32953 ft 494 kts 29°
2026-05-07 08:41 7.05695 -30.59440 32945 ft 494 kts 29°
2026-05-07 08:41 7.11690 -30.56044 32953 ft 494 kts 29°
2026-05-07 08:42 7.17687 -30.52643 32948 ft 494 kts 29°
2026-05-07 08:42 7.23684 -30.49243 32947 ft 495 kts 28°
2026-05-07 08:43 7.29693 -30.45835 32948 ft 495 kts 28°
2026-05-07 08:43 7.35665 -30.42449 32948 ft 495 kts 28°
2026-05-07 08:44 7.41679 -30.39037 32945 ft 496 kts 29°
2026-05-07 08:44 7.47705 -30.35620 32951 ft 496 kts 28°
2026-05-07 08:45 7.53725 -30.32198 32953 ft 496 kts 29°
2026-05-07 08:45 7.59747 -30.28779 32952 ft 497 kts 28°
2026-05-07 08:46 7.65736 -30.25376 32950 ft 497 kts 28°
2026-05-07 08:46 7.71773 -30.21947 32951 ft 497 kts 28°
2026-05-07 08:47 7.77802 -30.18523 32948 ft 498 kts 28°
2026-05-07 08:47 7.83837 -30.15090 32952 ft 497 kts 28°
2026-05-07 08:48 7.89831 -30.11679 32946 ft 497 kts 28°
2026-05-07 08:48 7.95857 -30.08251 32948 ft 497 kts 28°
2026-05-07 08:49 8.01885 -30.04820 32956 ft 498 kts 28°
2026-05-07 08:49 8.07925 -30.01384 32957 ft 498 kts 28°
2026-05-07 08:50 8.13854 -29.98001 32956 ft 499 kts 28°
2026-05-07 08:50 8.19901 -29.94554 32959 ft 499 kts 28°
2026-05-07 08:51 8.25924 -29.91125 32957 ft 500 kts 28°
2026-05-07 08:51 8.31980 -29.87672 32956 ft 499 kts 28°
2026-05-07 08:52 8.38046 -29.84211 32956 ft 500 kts 28°
2026-05-07 08:52 8.44103 -29.80755 32957 ft 500 kts 28°
2026-05-07 08:53 8.50125 -29.77317 32959 ft 500 kts 28°
2026-05-07 08:53 8.56182 -29.73861 32963 ft 500 kts 28°
2026-05-07 08:54 8.62245 -29.70404 32960 ft 500 kts 28°
2026-05-07 08:54 8.68298 -29.66947 32960 ft 499 kts 28°
2026-05-07 08:55 8.74345 -29.63492 32958 ft 498 kts 28°
2026-05-07 08:55 8.80388 -29.60038 32958 ft 498 kts 28°
2026-05-07 08:56 8.86421 -29.56590 32964 ft 497 kts 28°
2026-05-07 08:56 8.92408 -29.53167 32972 ft 497 kts 27°
2026-05-07 08:57 8.98440 -29.49715 32966 ft 498 kts 27°
2026-05-07 08:57 9.04468 -29.46266 32964 ft 498 kts 27°
2026-05-07 08:58 9.10472 -29.42828 32966 ft 498 kts 27°
2026-05-07 08:58 9.16503 -29.39372 32962 ft 498 kts 27°
2026-05-07 08:59 9.22539 -29.35911 32965 ft 498 kts 27°
2026-05-07 08:59 9.28583 -29.32450 32964 ft 498 kts 27°
2026-05-07 09:00 9.34618 -29.28990 32967 ft 499 kts 27°
2026-05-07 09:00 9.40628 -29.25542 32969 ft 499 kts 27°
2026-05-07 09:01 9.46678 -29.22070 32970 ft 500 kts 27°
2026-05-07 09:01 9.52730 -29.18589 32967 ft 499 kts 27°
2026-05-07 09:02 9.58775 -29.15119 32966 ft 499 kts 27°
2026-05-07 09:02 9.64819 -29.11646 32967 ft 499 kts 27°
2026-05-07 09:03 9.70833 -29.08188 32967 ft 499 kts 27°
2026-05-07 09:03 9.76867 -29.04717 32968 ft 499 kts 27°
2026-05-07 09:04 9.82913 -29.01238 32970 ft 499 kts 27°
2026-05-07 09:04 9.88844 -28.97821 32970 ft 499 kts 27°
2026-05-07 09:05 9.94886 -28.94340 32968 ft 500 kts 27°
2026-05-07 09:05 10.00929 -28.90857 32970 ft 501 kts 27°
2026-05-07 09:06 10.06997 -28.87357 32974 ft 502 kts 27°
2026-05-07 09:06 10.13046 -28.83866 32974 ft 503 kts 27°
2026-05-07 09:07 10.19134 -28.80349 32972 ft 503 kts 27°
2026-05-07 09:07 10.25224 -28.76833 32973 ft 503 kts 27°
2026-05-07 09:08 10.31312 -28.73315 32979 ft 503 kts 27°
2026-05-07 09:08 10.37370 -28.69813 32980 ft 504 kts 27°
2026-05-07 09:09 10.43475 -28.66280 32976 ft 505 kts 27°
2026-05-07 09:09 10.49589 -28.62741 32980 ft 504 kts 27°
2026-05-07 09:10 10.55683 -28.59215 32977 ft 504 kts 27°
2026-05-07 09:10 10.61786 -28.55681 32993 ft 504 kts 26°
2026-05-07 09:11 10.67892 -28.52142 32981 ft 504 kts 26°
2026-05-07 09:11 10.73993 -28.48606 32985 ft 505 kts 26°
2026-05-07 09:12 10.80093 -28.45067 32982 ft 505 kts 26°
2026-05-07 09:12 10.86187 -28.41532 32982 ft 505 kts 26°
2026-05-07 09:13 10.92299 -28.37985 32987 ft 506 kts 26°
2026-05-07 09:13 10.98375 -28.34455 32989 ft 506 kts 26°
2026-05-07 09:14 11.04494 -28.30897 32997 ft 507 kts 26°
2026-05-07 09:14 11.10625 -28.27335 32992 ft 507 kts 26°
2026-05-07 09:15 11.16733 -28.23782 32989 ft 508 kts 26°
2026-05-07 09:15 11.22875 -28.20208 32974 ft 509 kts 26°
2026-05-07 09:16 11.29024 -28.16625 32988 ft 509 kts 26°
2026-05-07 09:16 11.35187 -28.13033 32984 ft 510 kts 26°
2026-05-07 09:17 11.41363 -28.09436 32981 ft 511 kts 26°
2026-05-07 09:17 11.47535 -28.05838 32990 ft 511 kts 26°
2026-05-07 09:18 11.52664 -28.02846 32999 ft 511 kts 26°
2026-05-07 09:18 11.58735 -27.99301 32991 ft 511 kts 26°
2026-05-07 09:19 11.64907 -27.95697 33001 ft 511 kts 26°
2026-05-07 09:19 11.71088 -27.92084 32994 ft 512 kts 26°
2026-05-07 09:20 11.77232 -27.88492 32993 ft 512 kts 26°
2026-05-07 09:20 11.83430 -27.84867 32995 ft 513 kts 26°
2026-05-07 09:21 11.89622 -27.81247 32997 ft 513 kts 26°
2026-05-07 09:21 11.95824 -27.77615 32999 ft 513 kts 26°
2026-05-07 09:22 12.02010 -27.73990 33004 ft 514 kts 25°
2026-05-07 09:22 12.08183 -27.70372 32997 ft 514 kts 25°
2026-05-07 09:23 12.14403 -27.66726 32996 ft 515 kts 26°
2026-05-07 09:23 12.20620 -27.63077 32997 ft 515 kts 25°
2026-05-07 09:24 12.26842 -27.59421 33000 ft 516 kts 25°
2026-05-07 09:24 12.33029 -27.55786 32996 ft 515 kts 25°
2026-05-07 09:25 12.39255 -27.52106 32986 ft 516 kts 26°
2026-05-07 09:25 12.45410 -27.48405 32980 ft 511 kts 25°
2026-05-07 09:26 12.51617 -27.44806 33005 ft 514 kts 25°
2026-05-07 09:26 12.57872 -27.41176 33011 ft 519 kts 25°
2026-05-07 09:27 12.64137 -27.37422 33014 ft 522 kts 25°
2026-05-07 09:28 12.73591 -27.31899 33007 ft 521 kts 25°
2026-05-07 09:28 12.79838 -27.28232 33001 ft 520 kts 25°
2026-05-07 09:29 12.86091 -27.24541 33011 ft 518 kts 25°
2026-05-07 09:29 12.92337 -27.20852 33009 ft 517 kts 25°
2026-05-07 09:30 12.98563 -27.17169 33001 ft 516 kts 25°
2026-05-07 09:30 13.04784 -27.13489 33005 ft 516 kts 25°
2026-05-07 09:31 13.11012 -27.09807 33008 ft 516 kts 25°
2026-05-07 09:31 13.17240 -27.06120 33005 ft 517 kts 25°
2026-05-07 09:32 13.23441 -27.02447 33009 ft 518 kts 25°
2026-05-07 09:32 13.29594 -26.98801 33007 ft 519 kts 25°
2026-05-07 09:33 13.35864 -26.95082 33003 ft 520 kts 25°
2026-05-07 09:33 13.42122 -26.91372 33018 ft 520 kts 25°
2026-05-07 09:34 13.48336 -26.87669 33011 ft 518 kts 25°
2026-05-07 09:34 13.54559 -26.83962 33027 ft 516 kts 25°
2026-05-07 09:35 13.60804 -26.80282 33014 ft 518 kts 25°
2026-05-07 09:35 13.67068 -26.76567 33014 ft 521 kts 25°
2026-05-07 09:36 13.73323 -26.72805 33018 ft 519 kts 26°
2026-05-07 09:36 13.79547 -26.69023 33014 ft 519 kts 24°
2026-05-07 09:37 13.85847 -26.65341 33024 ft 521 kts 24°
2026-05-07 09:37 13.92102 -26.61642 33021 ft 522 kts 24°
2026-05-07 09:38 13.98382 -26.57890 33025 ft 521 kts 25°
2026-05-07 09:38 14.04652 -26.54136 33018 ft 521 kts 24°
2026-05-07 09:39 14.10917 -26.50394 33012 ft 519 kts 24°
2026-05-07 09:39 14.17166 -26.46659 33013 ft 517 kts 24°
2026-05-07 09:40 14.23345 -26.42960 33008 ft 516 kts 24°
2026-05-07 09:40 14.29546 -26.39249 33015 ft 515 kts 24°
2026-05-07 09:41 14.35738 -26.35541 33014 ft 514 kts 24°
2026-05-07 09:41 14.41928 -26.31830 33040 ft 514 kts 25°
2026-05-07 09:42 14.48119 -26.28120 33020 ft 515 kts 25°
2026-05-07 09:42 14.54310 -26.24406 33013 ft 515 kts 25°
2026-05-07 09:43 14.60467 -26.20711 33013 ft 514 kts 25°
2026-05-07 09:43 14.66641 -26.16997 33016 ft 514 kts 25°
2026-05-07 09:44 14.72823 -26.13278 33016 ft 513 kts 25°
2026-05-07 09:44 14.78995 -26.09566 33033 ft 513 kts 25°
2026-05-07 09:45 14.85155 -26.05855 33014 ft 512 kts 25°
2026-05-07 09:45 14.91300 -26.02154 33015 ft 510 kts 25°
2026-05-07 09:46 14.97338 -25.98513 33018 ft 509 kts 25°
2026-05-07 09:46 15.03402 -25.94856 33026 ft 508 kts 25°
2026-05-07 09:47 15.09510 -25.91170 33017 ft 508 kts 25°
2026-05-07 09:47 15.15623 -25.87476 33025 ft 508 kts 26°
2026-05-07 09:48 15.21733 -25.83780 33020 ft 508 kts 26°
2026-05-07 09:48 15.27834 -25.80090 33021 ft 507 kts 26°
2026-05-07 09:49 15.33919 -25.76406 33022 ft 506 kts 26°
2026-05-07 09:49 15.39963 -25.72746 33023 ft 506 kts 26°
2026-05-07 09:50 15.46041 -25.69060 33046 ft 506 kts 26°
2026-05-07 09:50 15.52124 -25.65371 33030 ft 505 kts 26°
2026-05-07 09:51 15.58189 -25.61690 33022 ft 505 kts 26°
2026-05-07 09:51 15.64243 -25.58011 33026 ft 504 kts 26°
2026-05-07 09:52 15.70265 -25.54352 33027 ft 504 kts 26°
2026-05-07 09:52 15.76316 -25.50672 33034 ft 503 kts 26°
2026-05-07 09:53 15.82370 -25.46986 33041 ft 503 kts 26°
2026-05-07 09:53 15.88378 -25.43327 33035 ft 502 kts 26°
2026-05-07 09:54 15.94413 -25.39647 33037 ft 502 kts 26°
2026-05-07 09:54 16.00419 -25.35984 33023 ft 502 kts 26°
2026-05-07 09:55 16.06441 -25.32310 33024 ft 501 kts 26°
2026-05-07 09:55 16.12455 -25.28637 33024 ft 501 kts 26°
2026-05-07 09:56 16.18469 -25.24960 33025 ft 501 kts 26°
2026-05-07 09:56 16.24473 -25.21286 33017 ft 500 kts 26°
2026-05-07 09:57 16.30431 -25.17638 33012 ft 499 kts 26°
2026-05-07 09:57 16.36426 -25.13968 33013 ft 498 kts 26°
2026-05-07 09:58 16.42401 -25.10304 33007 ft 498 kts 26°
2026-05-07 09:58 16.48375 -25.06639 33008 ft 498 kts 26°
2026-05-07 09:59 16.54318 -25.02989 33005 ft 498 kts 26°
2026-05-07 09:59 16.60181 -24.99385 32996 ft 499 kts 26°
2026-05-07 10:00 16.66176 -24.95701 32999 ft 500 kts 26°
2026-05-07 10:00 16.72176 -24.92011 32997 ft 500 kts 26°
2026-05-07 10:01 16.78145 -24.88339 33001 ft 501 kts 26°
2026-05-07 10:01 16.84153 -24.84636 33018 ft 501 kts 27°
2026-05-07 10:02 16.90138 -24.80941 32999 ft 498 kts 27°
2026-05-07 10:02 16.96095 -24.77266 33008 ft 494 kts 27°
2026-05-07 10:03 17.01947 -24.73650 33038 ft 492 kts 27°
2026-05-07 10:03 17.07835 -24.70010 33029 ft 491 kts 27°
2026-05-07 10:04 17.13755 -24.66353 33060 ft 498 kts 27°
2026-05-07 10:04 17.19719 -24.62665 33063 ft 496 kts 27°
2026-05-07 10:05 17.25584 -24.59025 33034 ft 486 kts 27°
2026-05-07 10:05 17.31387 -24.55427 33050 ft 487 kts 27°
2026-05-07 10:06 17.37228 -24.51806 33051 ft 489 kts 27°
2026-05-07 10:06 17.42096 -24.48786 33051 ft 490 kts 27°
2026-05-07 10:07 17.47963 -24.45141 33051 ft 491 kts 27°
2026-05-07 10:07 17.53843 -24.41484 33058 ft 490 kts 28°
2026-05-07 10:08 17.59701 -24.37839 33049 ft 489 kts 28°
2026-05-07 10:08 17.65544 -24.34200 33041 ft 486 kts 28°
2026-05-07 10:09 17.71342 -24.30587 33042 ft 484 kts 28°
2026-05-07 10:09 17.77091 -24.27004 33047 ft 482 kts 27°
2026-05-07 10:10 17.82859 -24.23408 33049 ft 482 kts 28°
2026-05-07 10:10 17.88624 -24.19812 33064 ft 481 kts 28°
2026-05-07 10:11 17.94383 -24.16215 33055 ft 481 kts 28°
2026-05-07 10:11 18.00127 -24.12624 33050 ft 481 kts 28°
2026-05-07 10:12 18.05840 -24.09049 33053 ft 481 kts 28°
2026-05-07 10:12 18.11593 -24.05446 33052 ft 481 kts 28°
2026-05-07 10:13 18.17340 -24.01841 33058 ft 481 kts 28°
2026-05-07 10:13 18.22992 -23.98300 33069 ft 481 kts 28°
2026-05-07 10:14 18.28738 -23.94698 33057 ft 481 kts 28°
2026-05-07 10:14 18.34480 -23.91091 33056 ft 480 kts 28°
2026-05-07 10:15 18.40225 -23.87477 33057 ft 480 kts 28°
2026-05-07 10:15 18.45926 -23.83893 33055 ft 479 kts 28°
2026-05-07 10:16 18.51653 -23.80286 33061 ft 479 kts 28°
2026-05-07 10:16 18.57376 -23.76679 33069 ft 480 kts 28°
2026-05-07 10:17 18.63106 -23.73066 33051 ft 480 kts 28°
2026-05-07 10:17 18.68838 -23.69449 33050 ft 479 kts 28°
2026-05-07 10:18 18.74563 -23.65833 33065 ft 479 kts 28°
2026-05-07 10:18 18.80246 -23.62242 33065 ft 479 kts 28°
2026-05-07 10:19 18.85960 -23.58627 33048 ft 479 kts 28°
2026-05-07 10:19 18.91672 -23.55013 33056 ft 478 kts 28°
2026-05-07 10:20 18.97380 -23.51396 33063 ft 478 kts 28°
2026-05-07 10:20 19.03034 -23.47809 33060 ft 478 kts 28°
2026-05-07 10:21 19.08735 -23.44191 33063 ft 478 kts 28°
2026-05-07 10:21 19.14439 -23.40569 33068 ft 478 kts 28°
2026-05-07 10:22 19.20151 -23.36940 33058 ft 478 kts 28°
2026-05-07 10:22 19.25826 -23.33329 33064 ft 478 kts 28°
2026-05-07 10:23 19.31522 -23.29702 33061 ft 477 kts 28°
2026-05-07 10:23 19.37207 -23.26077 33056 ft 476 kts 28°
2026-05-07 10:24 19.42871 -23.22462 33060 ft 475 kts 28°
2026-05-07 10:24 19.48537 -23.18848 33061 ft 474 kts 28°
2026-05-07 10:25 19.54185 -23.15242 33057 ft 474 kts 28°
2026-05-07 10:25 19.59837 -23.11628 33073 ft 473 kts 29°
2026-05-07 10:26 19.65444 -23.08040 33056 ft 473 kts 29°
2026-05-07 10:26 19.71090 -23.04426 33059 ft 472 kts 29°
2026-05-07 10:27 19.76707 -23.00826 33057 ft 471 kts 29°
2026-05-07 10:27 19.82216 -22.97290 33054 ft 471 kts 29°
2026-05-07 10:28 19.87787 -22.93714 33061 ft 470 kts 29°
2026-05-07 10:28 19.93386 -22.90118 33059 ft 470 kts 29°
2026-05-07 10:29 19.98983 -22.86519 33069 ft 470 kts 29°
2026-05-07 10:29 20.04574 -22.82919 33058 ft 470 kts 29°
2026-05-07 10:30 20.12983 -22.77502 33069 ft 471 kts 29°
2026-05-07 10:30 20.18599 -22.73880 33062 ft 472 kts 29°
2026-05-07 10:31 20.24221 -22.70251 33057 ft 473 kts 29°
2026-05-07 10:31 20.29850 -22.66613 33058 ft 473 kts 28°
2026-05-07 10:32 20.35457 -22.62989 33059 ft 473 kts 28°
2026-05-07 10:32 20.41082 -22.59350 33058 ft 472 kts 28°
2026-05-07 10:33 20.46698 -22.55712 33059 ft 472 kts 28°
2026-05-07 10:33 20.52311 -22.52075 33063 ft 471 kts 28°
2026-05-07 10:34 20.57913 -22.48439 33057 ft 471 kts 28°
2026-05-07 10:34 20.63476 -22.44825 33070 ft 471 kts 28°
2026-05-07 10:35 20.69073 -22.41187 33055 ft 471 kts 28°
2026-05-07 10:35 20.74675 -22.37543 33059 ft 471 kts 28°
2026-05-07 10:36 20.80274 -22.33898 33058 ft 471 kts 28°
2026-05-07 10:36 20.85870 -22.30249 33061 ft 471 kts 28°
2026-05-07 10:37 20.91472 -22.26597 33059 ft 471 kts 28°
2026-05-07 10:37 20.97074 -22.22941 33064 ft 472 kts 28°
2026-05-07 10:38 21.02667 -22.19286 33058 ft 473 kts 28°
2026-05-07 10:38 21.08245 -22.15635 33056 ft 473 kts 28°
2026-05-07 10:39 21.13863 -22.11959 33058 ft 473 kts 28°
2026-05-07 10:39 21.19478 -22.08279 33057 ft 473 kts 28°
2026-05-07 10:40 21.25085 -22.04601 33059 ft 472 kts 28°
2026-05-07 10:40 21.30700 -22.00915 33065 ft 473 kts 28°
2026-05-07 10:41 21.36213 -21.97295 33062 ft 473 kts 28°
2026-05-07 10:41 21.41824 -21.93606 33062 ft 473 kts 28°
2026-05-07 10:42 21.47403 -21.89933 33055 ft 473 kts 28°
2026-05-07 10:42 21.53029 -21.86230 33057 ft 473 kts 28°
2026-05-07 10:43 21.58643 -21.82529 33061 ft 473 kts 28°
2026-05-07 10:43 21.64263 -21.78815 33068 ft 474 kts 27°
2026-05-07 10:44 21.69878 -21.75103 33061 ft 474 kts 27°
2026-05-07 10:44 21.75504 -21.71383 33057 ft 474 kts 27°
2026-05-07 10:45 21.81088 -21.67689 33057 ft 474 kts 28°
2026-05-07 10:45 21.86710 -21.63964 33056 ft 474 kts 27°
2026-05-07 10:46 21.92336 -21.60235 33060 ft 474 kts 27°
2026-05-07 10:46 21.97949 -21.56507 33052 ft 474 kts 27°
2026-05-07 10:47 22.03550 -21.52785 33072 ft 474 kts 27°
2026-05-07 10:47 22.09133 -21.49069 33069 ft 474 kts 27°
2026-05-07 10:48 22.14763 -21.45324 33062 ft 474 kts 27°
2026-05-07 10:48 22.20377 -21.41584 33059 ft 474 kts 27°
2026-05-07 10:49 22.25994 -21.37837 33061 ft 474 kts 27°
2026-05-07 10:49 22.31616 -21.34082 33066 ft 475 kts 27°
2026-05-07 10:50 22.37239 -21.30322 33063 ft 475 kts 27°
2026-05-07 10:50 22.42837 -21.26582 33053 ft 476 kts 27°
2026-05-07 10:51 22.48455 -21.22820 33054 ft 476 kts 27°
2026-05-07 10:51 22.54089 -21.19042 33056 ft 476 kts 27°
2026-05-07 10:52 22.59721 -21.15266 33056 ft 476 kts 27°
2026-05-07 10:52 22.64406 -21.12120 33071 ft 477 kts 27°
2026-05-07 10:53 22.70055 -21.08324 33060 ft 477 kts 27°
2026-05-07 10:53 22.75698 -21.04528 33057 ft 477 kts 27°
2026-05-07 10:54 22.81332 -21.00733 33050 ft 477 kts 27°
2026-05-07 10:54 22.86822 -20.97032 33047 ft 477 kts 27°
2026-05-07 10:55 22.92447 -20.93235 33058 ft 477 kts 27°
2026-05-07 10:55 22.98078 -20.89434 33059 ft 477 kts 27°
2026-05-07 10:56 23.03708 -20.85627 33055 ft 477 kts 27°
2026-05-07 10:56 23.09349 -20.81811 33055 ft 478 kts 27°
2026-05-07 10:57 23.14997 -20.77990 33061 ft 479 kts 27°
2026-05-07 10:57 23.20612 -20.74184 33053 ft 479 kts 27°
2026-05-07 10:58 23.26277 -20.70341 33055 ft 479 kts 27°
2026-05-07 10:58 23.31891 -20.66530 33053 ft 479 kts 27°
2026-05-07 10:59 23.37538 -20.62690 33058 ft 478 kts 28°
2026-05-07 10:59 23.43185 -20.58845 33054 ft 479 kts 28°
2026-05-07 11:00 23.48836 -20.54995 33056 ft 478 kts 28°
2026-05-07 11:00 23.54483 -20.51145 33059 ft 479 kts 28°
2026-05-07 11:01 23.60095 -20.47315 33053 ft 479 kts 28°
2026-05-07 11:01 23.65742 -20.43457 33059 ft 479 kts 28°
2026-05-07 11:02 23.71392 -20.39592 33054 ft 479 kts 28°
2026-05-07 11:02 23.77034 -20.35730 33053 ft 477 kts 28°
2026-05-07 11:03 23.82590 -20.31918 33049 ft 471 kts 28°
2026-05-07 11:03 23.88140 -20.28110 33053 ft 470 kts 28°